FW7690 Weather Reports


Display with metric or nautical units.
time (UTC)temp
F
wind
direction
speed
MPH
gust
MPH
rain 1hr
in
rain 24hr
in
rain mn
in
humidity
%
barometer
mb
20260906111031 90 0 0.0 3.0 0.00 0.00 0.00 56 1019.7
20260906110531 90 82 1.0 3.0 0.00 0.00 0.00 56 1019.9
20260906110057 89 0 0.0 2.0 0.00 0.00 0.00 57 1019.8
20260906105531 89 156 1.0 4.0 0.00 0.00 0.00 59 1019.9
20260906105030 89 255 0.0 4.0 0.00 0.00 0.00 60 1019.8
20260906104559 89 121 1.0 3.0 0.00 0.00 0.00 58 1020.0
20260906104030 89 134 1.0 3.0 0.00 0.00 0.00 57 1019.9
20260906103531 89 221 1.0 3.0 0.00 0.00 0.00 59 1020.0
20260906103050 88 0 0.0 2.0 0.00 0.00 0.00 60 1019.9
20260906102531 88 106 0.0 3.0 0.00 0.00 0.00 60 1020.1
20260906102031 87 95 0.0 3.0 0.00 0.00 0.00 60 1020.1
20260906101549 87 78 1.0 3.0 0.00 0.00 0.00 61 1020.2
20260906101030 87 136 1.0 3.0 0.00 0.00 0.00 61 1020.2
20260906100534 87 105 1.0 3.0 0.00 0.00 0.00 63 1020.4
20260906100056 87 139 1.0 4.0 0.00 0.00 0.00 62 1020.4
20260906095533 86 299 1.0 4.0 0.00 0.00 0.00 64 1020.4
20260906095033 87 319 0.0 3.0 0.00 0.00 0.00 59 1020.3
20260906094614 86 158 0.0 5.0 0.00 0.00 0.00 63 1020.3
20260906094040 85 128 0.0 5.0 0.00 0.00 0.00 63 1020.3
20260906093531 85 275 0.0 4.0 0.00 0.00 0.00 63 1020.4
20260906093131 85 335 0.0 3.0 0.00 0.00 0.00 65 1020.4
20260906092533 85 0 0.0 4.0 0.00 0.00 0.00 66 1020.6
20260906092031 85 302 2.0 4.0 0.00 0.00 0.00 68 1020.5
20260906091608 85 307 1.0 4.0 0.00 0.00 0.00 68 1020.4
20260906091031 84 132 1.0 3.0 0.00 0.00 0.00 67 1020.5
20260906090535 84 219 1.0 2.0 0.00 0.00 0.00 67 1020.6
20260906090059 84 0 0.0 0.0 0.00 0.00 0.00 68 1020.6
20260906085534 84 0 0.0 0.0 0.00 0.00 0.00 69 1020.3
20260906085034 84 0 0.0 1.0 0.00 0.00 0.00 69 1020.5
20260906084604 84 0 0.0 1.0 0.00 0.00 0.00 71 1020.5
20260906084031 83 0 0.0 1.0 0.00 0.00 0.00 72 1020.4
20260906083533 82 0 0.0 1.0 0.00 0.00 0.00 73 1020.3
20260906083051 82 253 0.0 3.0 0.00 0.00 0.00 73 1020.3
20260906082530 82 0 0.0 3.0 0.00 0.00 0.00 74 1020.4
20260906082036 82 70 1.0 3.0 0.00 0.00 0.00 74 1020.4
20260906081559 82 84 0.0 1.0 0.00 0.00 0.00 74 1020.4
20260906081033 82 0 0.0 1.0 0.00 0.00 0.00 74 1020.4
20260906080532 81 0 0.0 1.0 0.00 0.00 0.00 75 1020.4
20260906075531 80 0 0.0 1.0 0.00 0.00 0.00 77 1020.4
20260906075030 80 0 0.0 0.0 0.00 0.00 0.00 78 1020.3
20260906074557 79 0 0.0 1.0 0.00 0.00 0.00 79 1020.2
20260906074033 79 0 0.0 1.0 0.00 0.00 0.00 79 1020.3
20260906073536 79 0 0.0 1.0 0.00 0.00 0.00 78 1020.4
20260906073050 78 0 0.0 1.0 0.00 0.00 0.00 80 1020.3
20260906072531 78 0 0.0 1.0 0.00 0.00 0.00 81 1020.2
20260906072030 77 0 0.0 1.0 0.00 0.00 0.00 82 1020.2
20260906071600 76 0 0.0 1.0 0.00 0.00 0.00 83 1020.1
20260906071031 76 0 0.0 1.0 0.00 0.00 0.00 82 1020.1
20260906070531 77 0 0.0 1.0 0.00 0.00 0.00 81 1019.9
20260906070059 77 0 0.0 1.0 0.00 0.00 0.00 81 1020.1
20260906065535 76 0 0.0 1.0 0.00 0.00 0.00 82 1020.1
20260906065035 75 39 0.0 1.0 0.00 0.00 0.00 86 1020.0
20260906064555 74 305 0.0 1.0 0.00 0.00 0.00 85 1020.0
20260906064032 74 0 0.0 0.0 0.00 0.00 0.00 84 1020.1
20260906063533 74 0 0.0 3.0 0.00 0.00 0.00 86 1020.0
20260906063052 73 0 0.0 3.0 0.00 0.00 0.00 87 1019.8
20260906062535 73 307 0.0 2.0 0.00 0.00 0.00 87 1019.8
20260906062033 73 0 0.0 1.0 0.00 0.00 0.00 87 1019.9
20260906061601 73 0 0.0 1.0 0.00 0.00 0.00 88 1019.8
20260906061032 72 0 0.0 0.0 0.00 0.00 0.00 88 1019.7
20260906060533 72 0 0.0 0.0 0.00 0.00 0.00 89 1019.9
20260906060100 71 0 0.0 0.0 0.00 0.00 0.00 89 1019.7
20260906055533 71 0 0.0 0.0 0.00 0.00 0.00 92 1019.6
20260906055033 70 0 0.0 0.0 0.00 0.00 0.00 93 1019.4
20260906054607 69 0 0.0 0.0 0.00 0.00 0.00 93 1019.6
20260906054033 69 0 0.0 0.0 0.00 0.00 0.00 93 1019.6
20260906053533 69 0 0.0 0.0 0.00 0.00 0.00 93 1019.4
20260906053051 69 0 0.0 0.0 0.00 0.00 0.00 93 1019.4
20260906052533 69 0 0.0 0.0 0.00 0.00 0.00 93 1019.3
20260906052034 68 0 0.0 0.0 0.00 0.00 0.00 93 1019.4
20260906051556 68 0 0.0 0.0 0.00 0.00 0.00 94 1019.3
20260906051033 68 0 0.0 0.0 0.00 0.00 0.00 94 1019.3
20260906050533 68 0 0.0 0.0 0.00 0.00 0.00 94 1019.1
20260906050105 68 0 0.0 0.0 0.00 0.00 0.00 95 1019.2
20260906045534 68 0 0.0 0.0 0.00 0.00 0.00 94 1019.2
20260906045032 67 0 0.0 0.0 0.00 0.00 0.00 94 1019.1
20260906044559 67 0 0.0 0.0 0.00 0.00 0.00 94 1019.0
20260906044035 67 0 0.0 2.0 0.00 0.00 0.00 94 1019.1
20260906043537 67 0 0.0 2.0 0.00 0.00 0.00 94 1019.0
20260906043050 68 141 0.0 1.0 0.00 0.00 0.00 93 1019.1
20260906042532 68 0 0.0 0.0 0.00 0.00 0.00 95 1018.9
20260906042033 68 0 0.0 0.0 0.00 0.00 0.00 94 1019.0
20260906041550 68 0 0.0 0.0 0.00 0.00 0.00 94 1019.0
20260906041033 68 0 0.0 0.0 0.00 0.00 0.00 94 1019.1
20260906040532 68 0 0.0 0.0 0.00 0.00 0.00 94 1018.8
20260906040105 68 0 0.0 0.0 0.00 0.00 0.00 94 1018.7
20260906035537 69 0 0.0 0.0 0.00 0.00 0.00 94 1018.6
20260906035034 69 0 0.0 0.0 0.00 0.00 0.00 94 1018.7
20260906034554 69 0 0.0 0.0 0.00 0.00 0.00 94 1018.8
20260906034029 69 0 0.0 0.0 0.00 0.00 0.00 94 1018.7
20260906033530 68 0 0.0 0.0 0.00 0.00 0.00 93 1018.9
20260906033050 68 0 0.0 0.0 0.00 0.00 0.00 93 1018.9
20260906032530 69 0 0.0 0.0 0.00 0.00 0.00 93 1018.7
20260906032033 69 0 0.0 0.0 0.00 0.00 0.00 93 1018.8
20260906031557 69 0 0.0 0.0 0.00 0.00 0.00 93 1018.9
20260906031031 69 0 0.0 0.0 0.00 0.00 0.00 93 1018.8
20260906030533 69 0 0.0 1.0 0.00 0.00 0.00 93 1018.9
20260906025532 69 0 0.0 1.0 0.00 0.00 0.00 93 1018.8
20260906025032 69 0 0.0 1.0 0.00 0.00 0.00 92 1018.9
20260906024558 69 0 0.0 1.0 0.00 0.00 0.00 92 1018.9
20260906024033 69 0 0.0 1.0 0.00 0.00 0.00 92 1018.8
20260906023531 69 141 0.0 1.0 0.00 0.00 0.00 93 1018.8
20260906023048 69 0 0.0 0.0 0.00 0.00 0.00 92 1018.9
20260906022531 69 0 0.0 0.0 0.00 0.00 0.00 92 1018.9
20260906022031 69 0 0.0 0.0 0.00 0.00 0.00 92 1018.9
20260906021559 69 0 0.0 1.0 0.00 0.00 0.00 92 1018.8
20260906021032 69 0 0.0 1.0 0.00 0.00 0.00 92 1018.7
20260906020532 69 141 0.0 1.0 0.00 0.00 0.00 92 1018.8
20260906020055 69 0 0.0 1.0 0.00 0.00 0.00 92 1018.8
20260906015531 69 0 0.0 1.0 0.00 0.00 0.00 92 1018.9
20260906015032 69 0 0.0 0.0 0.00 0.00 0.00 92 1018.9
20260906014632 69 0 0.0 0.0 0.00 0.00 0.00 92 1018.9
20260906014032 69 0 0.0 0.0 0.00 0.00 0.00 92 1018.9
20260906013531 69 0 0.0 0.0 0.00 0.00 0.00 92 1018.8
20260906013103 70 0 0.0 0.0 0.00 0.00 0.00 91 1018.9
20260906012531 70 0 0.0 0.0 0.00 0.00 0.00 91 1018.8
20260906012033 70 0 0.0 1.0 0.00 0.00 0.00 91 1018.9
20260906011604 70 0 0.0 1.0 0.00 0.00 0.00 91 1018.9
20260906011029 70 120 0.0 1.0 0.00 0.00 0.00 91 1018.9
20260906010532 70 0 0.0 0.0 0.00 0.00 0.00 91 1018.8
20260906010055 70 0 0.0 0.0 0.00 0.00 0.00 90 1018.9
20260906005531 71 0 0.0 1.0 0.00 0.00 0.00 90 1018.7
20260906005033 71 0 0.0 1.0 0.00 0.00 0.00 90 1018.7
20260906004611 71 0 0.0 1.0 0.00 0.00 0.00 90 1018.9
20260906004036 71 0 0.0 1.0 0.00 0.00 0.00 90 1018.7
20260906003530 71 0 0.0 1.0 0.00 0.00 0.00 90 1018.7
20260906003111 71 0 0.0 0.0 0.00 0.00 0.00 90 1018.7
20260906002532 71 0 0.0 1.0 0.00 0.00 0.00 90 1018.6
20260906002032 71 0 0.0 1.0 0.00 0.00 0.00 90 1018.8
20260906001555 71 122 0.0 1.0 0.00 0.00 0.00 89 1018.8
20260906001031 71 0 0.0 0.0 0.00 0.00 0.00 89 1018.9
20260906000531 71 0 0.0 0.0 0.00 0.00 0.00 89 1019.0
20260906000053 71 0 0.0 0.0 0.00 0.00 0.00 89 1018.8
20260905235530 71 0 0.0 0.0 0.00 0.00 0.00 89 1019.0
20260905235031 71 0 0.0 0.0 0.00 0.00 0.00 89 1019.1
20260905234551 71 0 0.0 0.0 0.00 0.00 0.00 89 1018.9
20260905234032 72 0 0.0 1.0 0.00 0.00 0.00 89 1019.0
20260905233535 72 0 0.0 1.0 0.00 0.00 0.00 88 1019.0
20260905233058 72 0 0.0 1.0 0.00 0.00 0.00 89 1018.9
20260905232533 72 0 0.0 0.0 0.00 0.00 0.00 88 1019.1
20260905232032 72 0 0.0 0.0 0.00 0.00 0.00 88 1019.1
20260905231555 72 0 0.0 0.0 0.00 0.00 0.00 88 1019.2
20260905231035 72 0 0.0 1.0 0.00 0.00 0.00 89 1019.2
20260905230531 72 0 0.0 1.0 0.00 0.00 0.00 90 1019.2
20260905230049 71 0 0.0 0.0 0.00 0.00 0.00 91 1018.9
20260905225534 72 0 0.0 0.0 0.00 0.00 0.00 92 1019.2
20260905225033 71 0 0.0 0.0 0.00 0.00 0.00 92 1019.1
20260905224613 71 0 0.0 0.0 0.00 0.00 0.00 91 1018.9
20260905224035 72 0 0.0 0.0 0.00 0.00 0.00 91 1019.1
20260905223532 72 0 0.0 0.0 0.00 0.00 0.00 91 1019.0
20260905223057 71 0 0.0 0.0 0.00 0.00 0.00 91 1018.9
20260905222534 71 0 0.0 0.0 0.00 0.00 0.00 90 1019.1
20260905222032 71 0 0.0 0.0 0.00 0.00 0.00 90 1018.9
20260905221610 71 0 0.0 0.0 0.00 0.00 0.00 90 1018.9
20260905221031 72 0 0.0 0.0 0.00 0.00 0.00 89 1018.9
20260905220534 72 0 0.0 0.0 0.00 0.00 0.00 90 1018.9
20260905220100 72 0 0.0 0.0 0.00 0.00 0.00 90 1018.9
20260905215533 72 0 0.0 0.0 0.00 0.00 0.00 89 1018.6
20260905215032 72 0 0.0 0.0 0.00 0.00 0.00 90 1018.6
20260905214600 72 0 0.0 0.0 0.00 0.00 0.00 90 1018.6
20260905214032 72 0 0.0 0.0 0.00 0.00 0.00 90 1018.7
20260905213533 72 0 0.0 0.0 0.00 0.00 0.00 91 1018.7
20260905213104 72 0 0.0 0.0 0.00 0.00 0.00 90 1018.6
20260905212532 72 0 0.0 0.0 0.00 0.00 0.00 90 1018.6
20260905212031 72 0 0.0 0.0 0.00 0.00 0.00 90 1018.7
20260905211549 72 0 0.0 0.0 0.00 0.00 0.00 90 1018.6
20260905211032 72 0 0.0 0.0 0.00 0.00 0.00 89 1018.6
20260905210529 72 0 0.0 0.0 0.00 0.00 0.00 89 1018.6
20260905210059 72 0 0.0 0.0 0.00 0.00 0.00 88 1018.7
20260905205532 72 0 0.0 0.0 0.00 0.00 0.00 88 1018.7
20260905205036 73 0 0.0 0.0 0.00 0.00 0.00 87 1018.6
20260905204555 73 0 0.0 0.0 0.00 0.00 0.00 87 1018.7
20260905204029 73 0 0.0 0.0 0.00 0.00 0.00 87 1018.6
20260905203532 73 0 0.0 0.0 0.00 0.00 0.00 88 1018.5
20260905203059 73 0 0.0 0.0 0.00 0.00 0.00 88 1018.6
20260905202533 74 0 0.0 0.0 0.00 0.00 0.00 87 1018.5
20260905202031 74 0 0.0 0.0 0.00 0.00 0.00 87 1018.6
20260905201620 74 0 0.0 0.0 0.00 0.00 0.00 87 1018.4
20260905201028 74 0 0.0 0.0 0.00 0.00 0.00 86 1018.4
20260905200530 74 0 0.0 0.0 0.00 0.00 0.00 86 1018.4
20260905195532 74 0 0.0 0.0 0.00 0.00 0.00 86 1018.4
20260905195034 75 0 0.0 0.0 0.00 0.00 0.00 86 1018.4
20260905194555 75 0 0.0 0.0 0.00 0.00 0.00 86 1018.4
20260905194031 75 0 0.0 0.0 0.00 0.00 0.00 85 1018.5
20260905193536 75 0 0.0 0.0 0.00 0.00 0.00 85 1018.4
20260905193113 75 0 0.0 0.0 0.00 0.00 0.00 85 1018.3
20260905192531 75 0 0.0 0.0 0.00 0.00 0.00 85 1018.3
20260905192031 75 0 0.0 0.0 0.00 0.00 0.00 85 1018.2
20260905191557 76 0 0.0 0.0 0.00 0.00 0.00 85 1018.3
20260905191031 76 0 0.0 0.0 0.00 0.00 0.00 85 1018.2
20260905190534 76 0 0.0 0.0 0.00 0.00 0.00 85 1018.1
20260905190058 76 0 0.0 0.0 0.00 0.00 0.00 85 1018.0
20260905185530 76 0 0.0 0.0 0.00 0.00 0.00 84 1018.0
20260905185030 77 0 0.0 0.0 0.00 0.00 0.00 84 1018.1
20260905184559 77 0 0.0 0.0 0.00 0.00 0.00 84 1018.1
20260905184032 77 0 0.0 0.0 0.00 0.00 0.00 83 1017.9
20260905183531 77 0 0.0 0.0 0.00 0.00 0.00 82 1018.0
20260905183058 78 0 0.0 0.0 0.00 0.00 0.00 81 1017.9
20260905182601 78 0 0.0 0.0 0.00 0.00 0.00 80 1017.8
20260905182031 78 0 0.0 0.0 0.00 0.00 0.00 80 1017.7
20260905181609 78 0 0.0 2.0 0.00 0.00 0.00 79 1017.8
20260905181036 79 0 0.0 4.0 0.00 0.00 0.00 78 1017.7
20260905180535 79 311 1.0 4.0 0.00 0.00 0.00 78 1017.7
20260905180056 79 324 2.0 4.0 0.00 0.00 0.00 78 1017.6
20260905175535 79 0 0.0 1.0 0.00 0.00 0.00 77 1017.6
20260905175036 79 0 0.0 1.0 0.00 0.00 0.00 76 1017.5
20260905174558 80 322 0.0 1.0 0.00 0.00 0.00 76 1017.4
20260905174032 80 0 0.0 1.0 0.00 0.00 0.00 75 1017.5
20260905173530 80 0 0.0 2.0 0.00 0.00 0.00 75 1017.5
20260905173100 81 310 1.0 3.0 0.00 0.00 0.00 74 1017.5
20260905172535 81 318 0.0 3.0 0.00 0.00 0.00 73 1017.4
20260905172031 82 317 0.0 5.0 0.00 0.00 0.00 72 1017.5
20260905171558 82 0 0.0 5.0 0.00 0.00 0.00 73 1017.6
20260905171034 82 327 2.0 6.0 0.00 0.00 0.00 72 1017.5
20260905170530 82 255 4.0 7.0 0.00 0.00 0.00 71 1017.6
20260905170057 82 297 3.0 7.0 0.00 0.00 0.00 71 1017.3
20260905165535 82 306 4.0 7.0 0.00 0.00 0.00 70 1017.5
20260905165034 83 304 3.0 7.0 0.00 0.00 0.00 71 1017.4
20260905164553 83 285 4.0 7.0 0.00 0.00 0.00 71 1017.4
20260905164035 83 295 4.0 7.0 0.00 0.00 0.00 69 1017.3
20260905163532 83 307 4.0 8.0 0.00 0.00 0.00 68 1017.4
20260905163049 83 317 4.0 8.0 0.00 0.00 0.00 68 1017.4
20260905162535 83 306 6.0 8.0 0.00 0.00 0.00 67 1017.5
20260905162034 84 288 5.0 10.0 0.00 0.00 0.00 67 1017.5
20260905161603 84 319 5.0 10.0 0.00 0.00 0.00 66 1017.4
20260905161034 84 301 4.0 8.0 0.00 0.00 0.00 65 1017.4
20260905160531 84 287 5.0 8.0 0.00 0.00 0.00 67 1017.4
20260905160056 84 283 5.0 9.0 0.00 0.00 0.00 65 1017.4
20260905155534 84 293 5.0 9.0 0.00 0.00 0.00 63 1017.4
20260905155031 84 349 6.0 9.0 0.00 0.00 0.00 66 1017.5
20260905154555 84 292 4.0 8.0 0.00 0.00 0.00 68 1017.4
20260905154031 84 263 5.0 9.0 0.00 0.00 0.00 67 1017.4
20260905153534 84 293 5.0 10.0 0.00 0.00 0.00 66 1017.3
20260905153100 85 311 5.0 10.0 0.00 0.00 0.00 66 1017.3
20260905152532 84 315 6.0 9.0 0.00 0.00 0.00 64 1017.3
20260905152035 85 315 3.0 8.0 0.00 0.00 0.00 67 1017.3
20260905151603 85 253 4.0 9.0 0.00 0.00 0.00 66 1017.2
20260905151033 85 284 6.0 9.0 0.00 0.00 0.00 65 1017.3
20260905150534 85 269 5.0 10.0 0.00 0.00 0.00 65 1017.4
20260905150055 85 314 5.0 10.0 0.00 0.00 0.00 65 1017.3
20260905145535 85 258 5.0 9.0 0.00 0.00 0.00 65 1017.4
20260905145031 85 287 4.0 9.0 0.00 0.00 0.00 66 1017.4
20260905144550 85 248 5.0 9.0 0.00 0.00 0.00 68 1017.3
20260905144035 85 290 6.0 11.0 0.00 0.00 0.00 67 1017.5
20260905143533 86 280 5.0 11.0 0.00 0.00 0.00 67 1017.4
20260905143101 86 309 6.0 10.0 0.00 0.00 0.00 67 1017.4
20260905142535 86 264 6.0 10.0 0.00 0.00 0.00 66 1017.5
20260905142035 86 263 5.0 10.0 0.00 0.00 0.00 67 1017.4
20260905141559 86 236 3.0 8.0 0.00 0.00 0.00 63 1017.3
20260905141032 86 223 4.0 9.0 0.00 0.00 0.00 65 1017.5
20260905140534 86 269 3.0 10.0 0.00 0.00 0.00 66 1017.4
20260905140059 86 223 5.0 10.0 0.00 0.00 0.00 67 1017.5
20260905135534 86 262 3.0 8.0 0.00 0.00 0.00 66 1017.6
20260905135031 86 316 5.0 9.0 0.00 0.00 0.00 67 1017.6
20260905134553 86 288 4.0 9.0 0.00 0.00 0.00 67 1017.7
20260905134032 86 266 5.0 9.0 0.00 0.00 0.00 67 1017.7
20260905133534 86 259 5.0 8.0 0.00 0.00 0.00 66 1017.8
20260905133058 86 307 4.0 8.0 0.00 0.00 0.00 65 1017.8
20260905132534 86 254 4.0 7.0 0.00 0.00 0.00 67 1017.9
20260905132034 86 316 4.0 9.0 0.00 0.00 0.00 63 1017.9
20260905131606 86 310 4.0 9.0 0.00 0.00 0.00 64 1018.0
20260905131034 86 265 5.0 9.0 0.00 0.00 0.00 65 1018.1
20260905130534 86 267 6.0 10.0 0.00 0.00 0.00 64 1018.0
20260905130057 86 326 4.0 10.0 0.00 0.00 0.00 64 1018.1
20260905125531 86 332 3.0 9.0 0.00 0.00 0.00 64 1018.2
20260905125032 87 287 5.0 9.0 0.00 0.00 0.00 64 1018.4
20260905124603 86 254 4.0 10.0 0.00 0.00 0.00 64 1018.2
20260905124033 86 202 4.0 10.0 0.00 0.00 0.00 61 1018.3
20260905123531 86 302 6.0 10.0 0.00 0.00 0.00 60 1018.3
20260905123052 86 275 2.0 7.0 0.00 0.00 0.00 61 1018.4
20260905122534 86 306 4.0 11.0 0.00 0.00 0.00 62 1018.3
20260905122034 86 295 5.0 11.0 0.00 0.00 0.00 64 1018.4
20260905121559 86 313 4.0 9.0 0.00 0.00 0.00 64 1018.4
20260905121032 86 296 4.0 8.0 0.00 0.00 0.00 64 1018.5
20260905120533 86 281 5.0 13.0 0.00 0.00 0.00 63 1018.5
20260905120056 86 255 5.0 13.0 0.00 0.00 0.00 63 1018.5
20260905115534 86 279 6.0 13.0 0.00 0.00 0.00 64 1018.7
20260905115033 86 294 3.0 10.0 0.00 0.00 0.00 63 1018.6
20260905114555 85 300 6.0 13.0 0.00 0.00 0.00 66 1018.6
20260905114034 85 274 7.0 13.0 0.00 0.00 0.00 62 1018.7
20260905113534 86 268 7.0 11.0 0.00 0.00 0.00 64 1018.6
20260905113050 85 262 6.0 11.0 0.00 0.00 0.00 65 1018.8
20260905112531 85 278 3.0 11.0 0.00 0.00 0.00 63 1018.7
20260905112036 85 299 6.0 10.0 0.00 0.00 0.00 66 1018.7
20260905111607 85 330 5.0 11.0 0.00 0.00 0.00 67 1018.7